Regional Weather Roundup
Issued by NWS

Home | Current Version | Previous Version | Text Only | Print | Product List | Glossary Off
Versions: 1 2 3 4 5 6 7 8 9 10 11 12 13 14 15 16 17 18 19 20 21 22 23 24 25 26 27 28 29 30 31 32 33 34 35 36 37 38 39 40 41 42 43 44 45 46 47 48 49 50

000
ASUS43 KDMX 231006
RWRIA

WEATHER ROUNDUP FOR IOWA
NATIONAL WEATHER SERVICE DES MOINES IA
400 AM CST THU FEB 23 2017

NOTE: "FAIR" INDICATES FEW OR NO CLOUDS BELOW 12,000 FEET WITH NO
SIGNIFICANT WEATHER AND/OR OBSTRUCTIONS TO VISIBILITY.

* - THESE STATIONS ARE NOT NWS STATIONS...THUS NOT UNDER NWS
QUALITY CONTROL.  THEY ALSO DO NOT REPORT WEATHER SUCH
AS PRECIPITATION OR FOG.

IAZ001>003-012>014-020>022-031>034-043>046-231100-
   NORTHWEST IOWA

CITY           SKY/WX    TMP DP  RH WIND       PRES   REMARKS
CARROLL *      CLOUDY    37  37 100 NE16      29.81S WCI  28
CHEROKEE *     CLOUDY    34  33  95 NE13G18   29.84R WCI  25
DENISON *      CLOUDY    36  34  93 NE15G24   29.80S WCI  26
LE MARS *      CLOUDY    34  32  93 N14G21    29.87R WCI  24
ORANGE CITY *  CLOUDY    34  32  93 NE12G20   29.85R WCI  25
SHELDON *      CLOUDY    32  32 100 NE14G21   29.84S WCI  22
SIOUX CITY     CLOUDY    38  32  79 NE18G25   29.85S WCI  28
SPENCER        CLOUDY    34  32  92 N16       29.83F WCI  24
STORM LAKE *   CLOUDY    34  32  93 NE17G24   29.82S WCI  23
$$

IAZ055>058-069>071-079>083-090>094-231100-
   SOUTHWEST IOWA

CITY           SKY/WX    TMP DP  RH WIND       PRES   REMARKS
ATLANTIC *     CLOUDY    39  37  93 NE18G24   29.78S WCI  30
CLARINDA *     CLOUDY    43  39  87 NE6       29.78S
COUNCIL BLFS * MOCLDY    37  37 100 N23       29.77S WCI  26
CRESTON *      CLOUDY    37  37 100 NE15G23   29.77R WCI  28
HARLAN  *      CLOUDY    37  37 100 NE15G23   29.83S WCI  28
LAMONI         CLOUDY    42  39  89 N10       29.74S
RED OAK *      MOCLDY    39  37  93 N15       29.76R WCI  31
SHENANDOAH *   CLOUDY    43  37  81 NE12      29.77R
$$

IAZ047>049-059>061-072>074-084-231100-
   CENTRAL IOWA

CITY           SKY/WX    TMP DP  RH WIND       PRES   REMARKS
AMES           CLOUDY    39  37  92 NE17      29.81R WCI  30
ANKENY *       CLOUDY    39  37  93 N13G20    29.81S WCI  32
BOONE *        CLOUDY    37  37 100 N16G25    29.80R WCI  28
CHARITON *     MOCLDY    39  37  93 N16       29.76S WCI  30
DES MOINES     CLOUDY    41  37  86 N14       29.78S
GRINNELL*      CLOUDY    40  37  90 N17G26    29.78S WCI  31
KNOXVILLE *    CLOUDY    39  37  93 N10       29.77R WCI  32
MARSHALLTOWN   CLOUDY    40  38  93 N10       29.80R WCI  33
NEWTON *       CLOUDY    39  37  93 N14       29.78R WCI  31
PELLA *        CLOUDY    40  38  93 N8        29.79R WCI  34
PERRY *        CLOUDY    39  37  90 N14G21    29.81S WCI  31
$$

IAZ004>006-015-016-023>025-035-036-231100-
   NORTH CENTRAL IOWA

CITY           SKY/WX    TMP DP  RH WIND       PRES   REMARKS
ALGONA *       CLOUDY    36  34  93 N18       29.80F WCI  25
CLARION *      CLOUDY    37  37 100 N15       29.82R WCI  28
ESTHERVILLE    CLOUDY    34  32  92 N18       29.82F WCI  23
FORT DODGE *   CLOUDY    36  30  80 N12G17    29.84R WCI  27
MASON CITY     CLOUDY    36  33  89 N15       29.83R WCI  27
FOREST CITY *  CLOUDY    36  34  93 N14       29.82R WCI  27
WEBSTER CITY * CLOUDY    37  34  87 N20       29.80S WCI  27
IOWA FALLS *   CLOUDY    38  36  90 N13G21    29.81R WCI  30
$$

IAZ007>011-017>019-026>030-037>042-050>054-066-231100-
   NORTHEAST IOWA

CITY           SKY/WX    TMP DP  RH WIND       PRES   REMARKS
CEDAR RAPIDS   CLOUDY    42  40  92 N16       29.75F
CHARLES CITY * CLOUDY    39  39 100 N16       29.77F WCI  30
CLINTON *      PTCLDY    41  40  96 NW12      29.75R
DECORAH *      CLOUDY    39  36  87 N13       29.75F WCI  32
DUBUQUE        PTCLDY    42  39  89 NW13      29.75R
MONTICELLO *   CLOUDY    45  39  81 NW8G15    29.77R
OELWEIN *      CLOUDY    41  39  93 N18G25    29.77S
WATERLOO       CLOUDY    41  36  82 N13       29.78S
$$

IAZ064-065-067-068-078-231100-
   EAST CENTRAL IOWA

CITY           SKY/WX    TMP DP  RH WIND       PRES   REMARKS
DAVENPORT      CLOUDY    43  41  93 N14       29.75R
IOWA CITY      CLOUDY    45  40  82 N17G23    29.77S
MUSCATINE *    CLOUDY    45  41  87 N13       29.77R
QUAD CITIES    PTCLDY   N/A N/A N/A NW12      29.75R
$$

IAZ062-063-075>077-085>089-095>099-231100-
   SOUTHEAST IOWA

CITY           SKY/WX    TMP DP  RH WIND       PRES   REMARKS
BURLINGTON     CLEAR     46  42  86 CALM      29.73S
FAIRFIELD *    PTCLDY    39  37  93 N20       29.74F WCI  30
KEOKUK *       CLEAR     46  41  81 N5        29.74R
CENTERVILLE *    N/A     41  39  93 N8        29.75F
OTTUMWA        CLOUDY    40  39  97 N14       29.76F WCI  32
WASHINGTON *   CLOUDY    43  41  93 N13       29.78R
$$

ABBREVIATIONS USED IN REMARKS
   TC - TEMPERATURES IN CELSIUS
  WCI - WIND CHILL INDEX
   HX - HEAT INDEX
  VSB - VISIBILITY
$$





USA.gov is the U.S. government's official web portal to all federal, state and local government web resources and services.